• In Germany
  • List of Countries
  • For 7 days
  • Water Temperature
  • Satellite Maps
  • Weather Map
  • Weather Widgets
  • user-avatar
    Login

    Hourly Weather Yulara

    Today, 21 July, Friday

    Time Temperature Precipitation Wind Pressure Humidity
    00:00 +15°C° 0 mm 1 mps 719 mmHg 41%
    01:00 +15°C° 0 mm 1 mps 718 mmHg 42%
    02:00 +14°C° 0 mm 1 mps 718 mmHg 44%
    03:00 +14°C° 0 mm 1 mps 718 mmHg 45%
    04:00 +13°C° 0 mm 1 mps 718 mmHg 46%
    05:00 +12°C° 0 mm 0 mps 718 mmHg 47%
    06:00 +12°C° 0 mm 0 mps 718 mmHg 48%
    07:00 +14°C° 0 mm 0 mps 719 mmHg 42%
    08:00 +16°C° 0 mm 0 mps 720 mmHg 37%
    09:00 +21°C° 0 mm 1 mps 721 mmHg 31%
    10:00 +22°C° 0 mm 1 mps 721 mmHg 29%
    11:00 +23°C° 0 mm 2 mps 720 mmHg 26%
    12:00 +25°C° 0 mm 2 mps 720 mmHg 23%
    13:00 +25°C° 0 mm 2 mps 720 mmHg 22%
    14:00 +26°C° 0 mm 2 mps 720 mmHg 21%
    15:00 +26°C° 0 mm 1 mps 719 mmHg 20%
    16:00 +25°C° 0 mm 1 mps 719 mmHg 22%
    17:00 +23°C° 0 mm 1 mps 719 mmHg 25%
    18:00 +21°C° 0 mm 1 mps 719 mmHg 28%
    19:00 +21°C° 0 mm 1 mps 719 mmHg 29%
    20:00 +19°C° 0 mm 2 mps 720 mmHg 30%
    21:00 +19°C° 0 mm 2 mps 720 mmHg 30%
    22:00 +19°C° 0 mm 2 mps 720 mmHg 31%
    23:00 +18°C° 0 mm 2 mps 720 mmHg 31%

    Tomorrow, 22 July, Saturday

    Time Temperature Precipitation Wind Pressure Humidity
    00:00 +18°C° 0 mm 2 mps 720 mmHg 32%
    01:00 +17°C° 0 mm 2 mps 720 mmHg 32%
    02:00 +17°C° 0 mm 2 mps 720 mmHg 33%
    03:00 +17°C° 0 mm 3 mps 720 mmHg 33%
    04:00 +16°C° 0 mm 2 mps 720 mmHg 34%
    05:00 +15°C° 0 mm 2 mps 720 mmHg 36%
    06:00 +15°C° 0 mm 2 mps 720 mmHg 37%
    07:00 +16°C° 0 mm 2 mps 720 mmHg 34%
    08:00 +18°C° 0 mm 2 mps 721 mmHg 31%
    09:00 +19°C° 0 mm 2 mps 721 mmHg 28%
    10:00 +21°C° 0 mm 2 mps 721 mmHg 26%
    11:00 +24°C° 0 mm 2 mps 721 mmHg 23%
    12:00 +25°C° 0 mm 3 mps 721 mmHg 20%
    13:00 +26°C° 0 mm 2 mps 720 mmHg 20%
    14:00 +26°C° 0 mm 2 mps 719 mmHg 19%
    15:00 +27°C° 0 mm 2 mps 719 mmHg 19%
    16:00 +25°C° 0 mm 1 mps 719 mmHg 22%
    17:00 +24°C° 0 mm 1 mps 719 mmHg 26%
    18:00 +22°C° 0 mm 1 mps 719 mmHg 29%
    19:00 +22°C° 0 mm 1 mps 719 mmHg 29%
    20:00 +20°C° 0 mm 2 mps 720 mmHg 28%
    21:00 +20°C° 0 mm 2 mps 720 mmHg 28%
    22:00 +20°C° 0 mm 2 mps 720 mmHg 28%
    23:00 +19°C° 0 mm 2 mps 720 mmHg 29%

    Day after tomorrow, 23 July, Sunday

    Time Temperature Precipitation Wind Pressure Humidity
    00:00 +19°C° 0 mm 2 mps 720 mmHg 29%
    01:00 +18°C° 0 mm 3 mps 720 mmHg 31%
    02:00 +18°C° 0 mm 3 mps 720 mmHg 32%
    03:00 +17°C° 0 mm 3 mps 720 mmHg 33%
    04:00 +16°C° 0 mm 2 mps 720 mmHg 35%
    05:00 +16°C° 0 mm 2 mps 720 mmHg 36%
    06:00 +15°C° 0 mm 1 mps 720 mmHg 37%
    07:00 +18°C° 0 mm 1 mps 720 mmHg 33%
    08:00 +19°C° 0 mm 1 mps 721 mmHg 30%
    09:00 +20°C° 0 mm 2 mps 722 mmHg 26%
    10:00 +23°C° 0 mm 2 mps 721 mmHg 23%
    11:00 +25°C° 0 mm 3 mps 721 mmHg 21%
    12:00 +26°C° 0 mm 4 mps 721 mmHg 19%
    13:00 +27°C° 0 mm 3 mps 720 mmHg 18%
    14:00 +27°C° 0 mm 3 mps 720 mmHg 18%
    15:00 +28°C° 0 mm 2 mps 719 mmHg 18%
    16:00 +26°C° 0 mm 2 mps 719 mmHg 21%
    17:00 +24°C° 0 mm 1 mps 719 mmHg 24%
    18:00 +22°C° 0 mm 1 mps 719 mmHg 28%
    19:00 +22°C° 0 mm 1 mps 719 mmHg 28%
    20:00 +21°C° 0 mm 1 mps 720 mmHg 28%
    21:00 +21°C° 0 mm 1 mps 720 mmHg 28%
    22:00 +20°C° 0 mm 2 mps 720 mmHg 28%
    23:00 +19°C° 0 mm 3 mps 720 mmHg 27%

    24 July, Monday

    Time Temperature Precipitation Wind Pressure Humidity
    00:00 +19°C° 0 mm 3 mps 720 mmHg 27%
    01:00 +18°C° 0 mm 3 mps 720 mmHg 28%
    02:00 +18°C° 0 mm 3 mps 720 mmHg 28%
    03:00 +17°C° 0 mm 3 mps 720 mmHg 29%
    04:00 +16°C° 0 mm 3 mps 720 mmHg 29%
    05:00 +16°C° 0 mm 3 mps 720 mmHg 30%
    06:00 +14°C° 0 mm 3 mps 720 mmHg 30%
    07:00 +16°C° 0 mm 3 mps 721 mmHg 28%
    08:00 +18°C° 0 mm 3 mps 721 mmHg 26%
    09:00 +19°C° 0 mm 2 mps 722 mmHg 24%
    10:00 +21°C° 0 mm 3 mps 722 mmHg 22%
    11:00 +24°C° 0 mm 3 mps 722 mmHg 19%
    12:00 +26°C° 0 mm 4 mps 722 mmHg 17%
    13:00 +26°C° 0 mm 3 mps 721 mmHg 16%
    14:00 +27°C° 0 mm 3 mps 720 mmHg 16%
    15:00 +27°C° 0 mm 2 mps 720 mmHg 15%
    16:00 +26°C° 0 mm 2 mps 720 mmHg 18%
    17:00 +24°C° 0 mm 1 mps 720 mmHg 21%
    18:00 +22°C° 0 mm 1 mps 720 mmHg 24%
    19:00 +22°C° 0 mm 1 mps 720 mmHg 24%
    20:00 +20°C° 0 mm 2 mps 721 mmHg 24%
    21:00 +20°C° 0 mm 2 mps 722 mmHg 23%
    22:00 +20°C° 0 mm 2 mps 721 mmHg 24%
    23:00 +19°C° 0 mm 3 mps 721 mmHg 25%

    25 July, Tuesday

    Time Temperature Precipitation Wind Pressure Humidity
    00:00 +18°C° 0 mm 3 mps 721 mmHg 25%
    01:00 +18°C° 0 mm 3 mps 721 mmHg 26%
    02:00 +17°C° 0 mm 3 mps 721 mmHg 26%
    03:00 +16°C° 0 mm 3 mps 721 mmHg 26%
    04:00 +16°C° 0 mm 3 mps 721 mmHg 26%
    05:00 +15°C° 0 mm 2 mps 721 mmHg 26%
    06:00 +15°C° 0 mm 2 mps 721 mmHg 27%
    07:00 +16°C° 0 mm 2 mps 722 mmHg 25%
    08:00 +17°C° 0 mm 2 mps 722 mmHg 22%
    09:00 +20°C° 0 mm 1 mps 723 mmHg 20%
    10:00 +21°C° 0 mm 2 mps 723 mmHg 19%
    11:00 +24°C° 0 mm 2 mps 723 mmHg 17%
    12:00 +25°C° 0 mm 2 mps 722 mmHg 15%
    13:00 +26°C° 0 mm 2 mps 722 mmHg 15%
    14:00 +27°C° 0 mm 2 mps 721 mmHg 15%
    15:00 +27°C° 0 mm 2 mps 721 mmHg 15%
    16:00 +25°C° 0 mm 1 mps 721 mmHg 17%
    17:00 +24°C° 0 mm 1 mps 721 mmHg 20%
    18:00 +22°C° 0 mm 1 mps 721 mmHg 22%
    19:00 +22°C° 0 mm 1 mps 721 mmHg 22%
    20:00 +20°C° 0 mm 2 mps 722 mmHg 22%
    21:00 +20°C° 0 mm 2 mps 722 mmHg 22%
    22:00 +20°C° 0 mm 2 mps 722 mmHg 23%
    23:00 +19°C° 0 mm 3 mps 722 mmHg 23%

    26 July, Wednesday

    Time Temperature Precipitation Wind Pressure Humidity
    00:00 +19°C° 0 mm 3 mps 722 mmHg 24%
    01:00 +18°C° 0 mm 3 mps 722 mmHg 25%
    02:00 +17°C° 0 mm 3 mps 722 mmHg 25%
    03:00 +17°C° 0 mm 3 mps 721 mmHg 26%
    04:00 +16°C° 0 mm 2 mps 722 mmHg 28%
    05:00 +16°C° 0 mm 2 mps 722 mmHg 29%
    06:00 +15°C° 0 mm 2 mps 722 mmHg 30%
    07:00 +17°C° 0 mm 2 mps 723 mmHg 29%
    08:00 +18°C° 0 mm 2 mps 723 mmHg 27%
    09:00 +20°C° 0 mm 3 mps 724 mmHg 25%
    10:00 +22°C° 0 mm 3 mps 724 mmHg 23%
    11:00 +23°C° 0 mm 4 mps 724 mmHg 21%
    12:00 +26°C° 0 mm 4 mps 723 mmHg 19%
    13:00 +27°C° 0 mm 4 mps 723 mmHg 18%
    14:00 +27°C° 0 mm 5 mps 722 mmHg 17%
    15:00 +28°C° 0 mm 5 mps 722 mmHg 17%
    16:00 +26°C° 0 mm 4 mps 722 mmHg 19%
    17:00 +25°C° 0 mm 4 mps 722 mmHg 20%
    18:00 +23°C° 0 mm 4 mps 722 mmHg 22%
    19:00 +22°C° 0 mm 4 mps 723 mmHg 24%
    20:00 +21°C° 0 mm 4 mps 723 mmHg 25%
    21:00 +20°C° 0 mm 4 mps 724 mmHg 26%
    22:00 +19°C° 0 mm 4 mps 724 mmHg 28%
    23:00 +19°C° 0 mm 4 mps 724 mmHg 30%
    Show more